CW5443 Weather Reports


time (UTC)temp
C
wind
direction
speed
KPH
gust
KPH
rain 1hr
cm
rain 24hr
cm
rain mn
cm
humidity
%
barometer
mb
20260507010542 11 232 1.6 6.4 0.05 0.91 0.89 79 1005.8
20260507005509 11 225 1.6 6.4 0.05 0.91 0.89 79 1005.4
20260507004509 11 221 3.2 9.7 0.08 0.91 0.89 79 1005.4
20260507003508 12 252 1.6 9.7 0.10 0.91 0.89 79 1005.4
20260507002508 12 199 3.2 6.4 0.08 0.89 0.86 79 1005.1
20260507001507 12 141 3.2 9.7 0.05 0.86 0.84 79 1005.1
20260507000506 13 143 1.6 11.3 0.05 0.86 0.84 79 1004.7
20260506235505 15 132 3.2 9.7 0.10 0.86 0.84 80 1004.4
20260506234505 16 219 0.0 4.8 0.08 0.81 0.79 81 1004.1
20260506233433 16 91 0.0 3.2 0.13 0.81 0.79 81 1004.1
20260506232432 16 91 0.0 3.2 0.13 0.81 0.79 81 1003.7
20260506231431 16 91 0.0 3.2 0.15 0.81 0.79 81 1003.7
20260506230431 16 91 0.0 3.2 0.13 0.79 0.76 81 1004.1
20260506225430 16 92 0.0 3.2 0.10 0.76 0.74 81 1004.1
20260506224429 16 91 0.0 3.2 0.08 0.74 0.74 81 1003.7
20260506223428 16 91 0.0 1.6 0.03 0.71 0.69 81 1003.7
20260506222428 16 91 0.0 4.8 0.03 0.71 0.69 81 1003.7
20260506221427 16 91 0.0 4.8 0.00 0.69 0.66 81 1003.7
20260506220426 16 110 1.6 4.8 0.00 0.71 0.66 81 1003.7
20260506215323 16 111 1.6 4.8 0.03 0.74 0.66 81 1003.7
20260506214322 16 111 1.6 6.4 0.05 0.74 0.66 80 1003.7
20260506213322 16 112 1.6 6.4 0.05 0.81 0.66 80 1003.7
20260506212321 16 59 1.6 4.8 0.08 0.86 0.66 80 1004.1
20260506211249 16 64 1.6 4.8 0.08 0.86 0.66 80 1004.1
20260506210248 16 65 1.6 4.8 0.08 0.84 0.64 80 1004.1
20260506205216 16 65 1.6 14.5 0.10 0.84 0.64 80 1004.1
20260506204215 16 62 3.2 14.5 0.08 0.81 0.61 80 1004.1
20260506203214 16 50 1.6 12.9 0.13 0.81 0.61 80 1004.1
20260506202213 16 67 1.6 8.0 0.15 0.79 0.58 80 1004.4
20260506201213 16 69 3.2 8.0 0.20 0.79 0.58 80 1004.4
20260506200212 16 53 3.2 8.0 0.20 0.76 0.56 80 1004.4
20260506195211 17 51 1.6 8.0 0.20 0.74 0.53 80 1004.7
20260506194210 17 65 3.2 6.4 0.23 0.74 0.53 80 1004.7
20260506193209 16 68 0.0 4.8 0.18 0.69 0.46 79 1005.1
20260506192137 17 68 0.0 6.4 0.15 0.64 0.43 79 1005.1
20260506191136 17 67 0.0 8.0 0.13 0.58 0.38 79 1005.1
20260506190135 17 61 3.2 9.7 0.15 0.56 0.36 79 1005.1
20260506185135 17 47 3.2 9.7 0.13 0.51 0.30 79 1005.1
20260506184103 17 46 1.6 9.7 0.15 0.51 0.30 78 1005.4
20260506183031 17 74 3.2 6.4 0.15 0.48 0.28 78 1005.4
20260506182030 17 57 1.6 16.1 0.20 0.48 0.28 78 1005.4
20260506181030 17 70 0.0 16.1 0.18 0.43 0.23 78 1005.8
20260506180029 17 54 1.6 6.4 0.18 0.43 0.20 77 1006.1
20260506175028 17 55 4.8 6.4 0.15 0.41 0.18 77 1006.1
20260506174028 17 44 0.0 3.2 0.15 0.36 0.15 77 1006.1
20260506173026 17 44 1.6 3.2 0.13 0.33 0.13 77 1006.1
20260506172025 17 44 1.6 3.2 0.08 0.28 0.08 77 1006.1
20260506171024 18 44 0.0 3.2 0.05 0.25 0.05 76 1006.4
20260506170023 18 44 1.6 3.2 0.03 0.23 0.03 76 1006.1
20260506165023 18 44 0.0 3.2 0.00 0.20 0.00 76 1006.4
20260506163951 18 44 0.0 3.2 0.00 0.20 0.00 76 1006.1
20260506162950 18 44 0.0 0.0 0.00 0.20 0.00 76 1006.4
20260506161949 18 44 0.0 1.6 0.00 0.20 0.00 76 1006.4
20260506160948 18 44 0.0 4.8 0.00 0.20 0.00 77 1006.4
20260506155948 17 46 0.0 4.8 0.00 0.20 0.00 77 1006.8
20260506154947 17 46 1.6 3.2 0.00 0.20 0.00 77 1007.1
20260506153946 17 46 0.0 3.2 0.00 0.20 0.00 77 1007.5
20260506152945 17 51 0.0 4.8 0.00 0.20 0.00 78 1007.5
20260506151945 17 51 0.0 4.8 0.00 0.20 0.00 78 1007.5
20260506150944 16 51 1.6 4.8 0.00 0.20 0.00 79 1007.5
20260506145943 16 51 0.0 3.2 0.00 0.20 0.00 79 1007.5
20260506144942 16 51 0.0 4.8 0.00 0.20 0.00 79 1007.5
20260506143941 16 51 0.0 4.8 0.00 0.20 0.00 79 1007.5
20260506142940 16 51 0.0 4.8 0.00 0.20 0.00 80 1007.8
20260506141939 16 51 1.6 4.8 0.00 0.20 0.00 80 1007.5
20260506140939 16 51 1.6 3.2 0.00 0.20 0.00 81 1007.8
20260506135907 15 51 0.0 6.4 0.00 0.20 0.00 81 1007.8
20260506134906 15 51 1.6 6.4 0.00 0.20 0.00 81 1007.5
20260506133906 15 55 1.6 4.8 0.00 0.20 0.00 81 1007.8
20260506132905 15 34 0.0 3.2 0.00 0.20 0.00 81 1007.8
20260506131904 14 34 1.6 3.2 0.00 0.20 0.00 81 1008.1
20260506130903 14 41 0.0 4.8 0.00 0.20 0.00 81 1008.1
20260506125903 14 50 1.6 4.8 0.00 0.20 0.00 81 1008.1
20260506124902 13 54 0.0 6.4 0.00 0.20 0.00 81 1007.8
20260506123830 13 54 1.6 6.4 0.00 0.20 0.00 81 1007.8
20260506122829 13 57 1.6 4.8 0.00 0.20 0.00 81 1007.8
20260506121757 13 33 1.6 4.8 0.00 0.20 0.00 81 1008.1
20260506120756 13 31 0.0 4.8 0.00 0.20 0.00 81 1008.1
20260506115756 13 31 1.6 4.8 0.00 0.20 0.00 81 1008.1
20260506114724 12 31 0.0 0.0 0.00 0.20 0.00 80 1008.5
20260506113723 12 31 0.0 0.0 0.00 0.20 0.00 80 1008.5
20260506112722 12 31 0.0 0.0 0.00 0.20 0.00 80 1008.5
20260506111723 12 31 0.0 0.0 0.00 0.20 0.00 80 1008.1
20260506110813 12 31 0.0 0.0 0.00 0.20 0.00 80 1008.1
20260506105812 12 31 0.0 0.0 0.00 0.20 0.00 80 1007.8
20260506104811 12 31 0.0 0.0 0.00 0.20 0.00 80 1008.1
20260506103811 12 31 0.0 0.0 0.00 0.20 0.00 80 1008.1
20260506102810 11 31 0.0 0.0 0.00 0.20 0.00 79 1008.1
20260506101809 11 31 0.0 0.0 0.00 0.20 0.00 79 1008.1
20260506100809 11 31 0.0 0.0 0.00 0.20 0.00 79 1008.1
20260506095808 12 31 0.0 0.0 0.00 0.20 0.00 79 1007.8
20260506094807 12 31 0.0 0.0 0.00 0.20 0.00 79 1007.8
20260506093807 12 31 0.0 1.6 0.00 0.20 0.00 79 1007.8
20260506092735 12 31 0.0 3.2 0.00 0.20 0.00 79 1007.8
20260506091734 12 31 1.6 3.2 0.00 0.20 0.00 79 1008.1
20260506090733 12 31 0.0 1.6 0.00 0.20 0.00 79 1007.8
20260506085732 12 31 0.0 3.2 0.00 0.20 0.00 79 1007.8
20260506084731 12 31 0.0 3.2 0.00 0.20 0.00 79 1007.8
20260506083731 12 31 0.0 0.0 0.00 0.20 0.00 79 1007.8
20260506082730 13 31 0.0 0.0 0.00 0.20 0.00 79 1008.1
20260506081657 13 31 0.0 0.0 0.00 0.20 0.00 80 1007.8
20260506080657 13 31 0.0 0.0 0.00 0.20 0.00 79 1007.8
20260506072550 13 31 0.0 0.0 0.00 0.20 0.00 79 1008.1
20260506071550 13 31 0.0 0.0 0.00 0.20 0.00 80 1007.8
20260506070549 13 31 0.0 0.0 0.00 0.20 0.00 80 1007.8
20260506062515 14 31 0.0 0.0 0.00 0.20 0.00 80 1007.5
20260506061514 14 31 0.0 1.6 0.00 0.20 0.00 79 1007.8
20260506060411 14 31 0.0 1.6 0.00 0.20 0.00 80 1007.5
20260506051407 15 31 0.0 6.4 0.00 0.20 0.00 80 1007.5
20260506050232 15 31 1.6 6.4 0.00 0.20 0.00 80 1007.8
20260506044231 15 355 0.0 4.8 0.00 0.20 0.00 79 1007.5
20260506043230 15 38 0.0 3.2 0.00 0.20 0.00 79 1007.8
20260506042229 15 38 0.0 3.2 0.00 0.20 0.00 79 1007.5
20260506041229 15 38 0.0 0.0 0.00 0.20 0.00 79 1007.5
20260506040156 15 38 0.0 1.6 0.00 0.20 0.00 79 1007.5
20260506035125 15 38 0.0 3.2 0.03 0.20 0.20 79 1007.5
20260506034124 15 38 1.6 3.2 0.03 0.20 0.20 79 1007.5
20260506033123 15 38 0.0 3.2 0.03 0.20 0.20 79 1007.5
20260506032051 15 38 1.6 3.2 0.03 0.20 0.20 79 1007.5
20260506031050 15 38 0.0 3.2 0.03 0.20 0.20 79 1007.5
20260506030018 15 38 0.0 0.0 0.03 0.20 0.20 78 1007.5
20260506025017 15 38 0.0 0.0 0.00 0.18 0.18 78 1007.5
20260506024017 15 38 0.0 0.0 0.00 0.18 0.18 78 1007.5
20260506023016 15 38 0.0 0.0 0.00 0.18 0.18 78 1007.5
20260506021911 15 38 0.0 0.0 0.00 0.18 0.18 78 1007.5
20260506020911 15 38 0.0 1.6 0.00 0.18 0.18 78 1007.5
20260506015910 16 38 0.0 1.6 0.00 0.18 0.18 78 1007.5
20260506014909 16 38 0.0 3.2 0.00 0.18 0.18 78 1007.5
20260506013908 16 38 0.0 3.2 0.00 0.18 0.18 78 1007.8
20260506012907 16 38 0.0 1.6 0.00 0.18 0.18 78 1007.5
20260506011804 16 38 0.0 0.0 0.00 0.18 0.18 78 1007.5